Location: Drocourt
(49.0571°N, 1.7669°E)
Time: 02:44:54
(UTC+00:00)

Transit 4A - Pass Details

Date: 15 April 2024
Orbit: 871 x 971 km, 66.8° (Epoch: 19 May)

Event Time Altitude Azimuth Distance (km) Brightness Sun altitude
Rises 17:56:41 0° 302° (WNW) 3,496 12.3 7.0°
Reaches altitude 10° 18:00:41 10° 328° (NNW) 2,542 10.9 6.4°
Maximum altitude 18:03:31 14° 357° (N) 2,289 10.2 5.9°
Drops below altitude 10° 18:06:20 10° 27° (NNE) 2,531 10.0 5.4°
Sets 18:10:18 0° 53° (NE) 3,468 10.5 4.8°
